| time (UTC) | temp C | wind direction | speed KPH | gust KPH | rain 1hr cm | rain 24hr cm | rain mn cm | humidity % | barometer mb |
| 20260508003535 | 9 | 82 | 3.2 | 4.8 | 0.00 | 0.00 | 0.00 | 77 | 1012.8 |
| 20260508003035 | 9 | 188 | 0.0 | 0.0 | 0.00 | 0.00 | 0.00 | 77 | 1012.8 |
| 20260508002535 | 9 | 243 | 1.6 | 4.8 | 0.00 | 0.00 | 0.00 | 77 | 1012.9 |
| 20260508002035 | 9 | 0.0 | 0.0 | 0.00 | 0.00 | 0.00 | 77 | 1012.8 | |
| 20260508001535 | 9 | 103 | 3.2 | 4.8 | 0.00 | 0.00 | 0.00 | 78 | 1012.6 |
| 20260508001035 | 9 | 103 | 3.2 | 4.8 | 0.00 | 0.00 | 0.00 | 78 | 1012.9 |
| 20260508000535 | 9 | 283 | 1.6 | 3.2 | 0.00 | 0.00 | 0.00 | 77 | 1012.7 |
| 20260508000035 | 9 | 293 | 3.2 | 4.8 | 0.00 | 0.00 | 0.00 | 77 | 1012.8 |
| 20260507235535 | 9 | 41 | 0.0 | 1.6 | 0.00 | 0.00 | 0.00 | 77 | 1012.8 |
| 20260507235035 | 9 | 308 | 1.6 | 3.2 | 0.00 | 0.00 | 0.00 | 77 | 1013.1 |
| 20260507234535 | 9 | 211 | 1.6 | 3.2 | 0.00 | 0.00 | 0.00 | 77 | 1013.0 |
| 20260507234035 | 9 | 352 | 0.0 | 0.0 | 0.00 | 0.00 | 0.00 | 77 | 1012.8 |
| 20260507233535 | 10 | 352 | 0.0 | 0.0 | 0.00 | 0.00 | 0.00 | 77 | 1013.0 |
| 20260507233034 | 10 | 232 | 1.6 | 3.2 | 0.00 | 0.00 | 0.00 | 77 | 1013.0 |
| 20260507232535 | 10 | 186 | 0.0 | 1.6 | 0.00 | 0.00 | 0.00 | 77 | 1013.0 |
| 20260507232034 | 10 | 1 | 0.0 | 1.6 | 0.00 | 0.00 | 0.00 | 77 | 1012.8 |
| 20260507231535 | 10 | 249 | 1.6 | 3.2 | 0.00 | 0.00 | 0.00 | 76 | 1012.9 |
| 20260507231034 | 10 | 128 | 1.6 | 1.6 | 0.00 | 0.00 | 0.00 | 76 | 1012.8 |
| 20260507230534 | 10 | 323 | 0.0 | 0.0 | 0.00 | 0.00 | 0.00 | 76 | 1013.1 |
| 20260507230035 | 10 | 45 | 0.0 | 0.0 | 0.00 | 0.00 | 0.00 | 76 | 1012.9 |
| 20260507225534 | 10 | 306 | 3.2 | 4.8 | 0.00 | 0.00 | 0.00 | 76 | 1013.0 |
| 20260507225034 | 10 | 171 | 0.0 | 0.0 | 0.00 | 0.00 | 0.00 | 76 | 1012.8 |
| 20260507224534 | 10 | 279 | 0.0 | 3.2 | 0.00 | 0.00 | 0.00 | 76 | 1012.8 |
| 20260507224034 | 10 | 328 | 0.0 | 1.6 | 0.00 | 0.00 | 0.00 | 76 | 1013.0 |
| 20260507223534 | 10 | 210 | 0.0 | 1.6 | 0.00 | 0.00 | 0.00 | 76 | 1013.0 |
| 20260507223034 | 10 | 212 | 1.6 | 1.6 | 0.00 | 0.00 | 0.00 | 76 | 1012.9 |
| 20260507222534 | 10 | 275 | 0.0 | 1.6 | 0.00 | 0.00 | 0.00 | 76 | 1012.8 |
| 20260507222034 | 10 | 188 | 1.6 | 3.2 | 0.00 | 0.00 | 0.00 | 76 | 1012.9 |
| 20260507221534 | 10 | 165 | 1.6 | 3.2 | 0.00 | 0.00 | 0.00 | 76 | 1012.9 |
| 20260507221034 | 10 | 64 | 1.6 | 1.6 | 0.00 | 0.00 | 0.00 | 76 | 1012.9 |
| 20260507220535 | 10 | 67 | 0.0 | 1.6 | 0.00 | 0.00 | 0.00 | 76 | 1012.9 |
| 20260507220034 | 10 | 209 | 0.0 | 1.6 | 0.00 | 0.00 | 0.00 | 76 | 1012.9 |
| 20260507215534 | 10 | 165 | 0.0 | 1.6 | 0.00 | 0.00 | 0.00 | 75 | 1012.9 |
| 20260507215034 | 10 | 196 | 0.0 | 3.2 | 0.00 | 0.00 | 0.00 | 75 | 1012.9 |
| 20260507214534 | 10 | 59 | 0.0 | 3.2 | 0.00 | 0.00 | 0.00 | 75 | 1012.7 |
| 20260507214034 | 10 | 169 | 1.6 | 1.6 | 0.00 | 0.00 | 0.00 | 75 | 1012.9 |
| 20260507213534 | 10 | 206 | 0.0 | 1.6 | 0.00 | 0.00 | 0.00 | 75 | 1012.8 |
| 20260507213034 | 10 | 120 | 0.0 | 3.2 | 0.00 | 0.00 | 0.00 | 74 | 1012.9 |
| 20260507212534 | 10 | 56 | 1.6 | 3.2 | 0.00 | 0.00 | 0.00 | 75 | 1012.8 |
| 20260507212034 | 10 | 196 | 1.6 | 3.2 | 0.00 | 0.00 | 0.00 | 74 | 1012.9 |
| 20260507211534 | 10 | 80 | 0.0 | 0.0 | 0.00 | 0.00 | 0.00 | 74 | 1013.1 |
| 20260507211034 | 10 | 36 | 0.0 | 1.6 | 0.00 | 0.00 | 0.00 | 74 | 1012.7 |
| 20260507210534 | 11 | 202 | 0.0 | 1.6 | 0.00 | 0.00 | 0.00 | 74 | 1012.7 |
| 20260507210035 | 11 | 199 | 1.6 | 3.2 | 0.00 | 0.00 | 0.00 | 74 | 1012.9 |
| 20260507205534 | 11 | 181 | 3.2 | 4.8 | 0.00 | 0.00 | 0.00 | 74 | 1013.2 |
| 20260507205035 | 11 | 201 | 1.6 | 12.9 | 0.00 | 0.00 | 0.00 | 74 | 1012.9 |
| 20260507204534 | 11 | 208 | 3.2 | 3.2 | 0.00 | 0.00 | 0.00 | 73 | 1012.7 |
| 20260507204034 | 11 | 201 | 3.2 | 9.7 | 0.00 | 0.00 | 0.00 | 73 | 1012.7 |
| 20260507203534 | 11 | 202 | 3.2 | 4.8 | 0.00 | 0.00 | 0.00 | 73 | 1012.9 |
| 20260507203034 | 11 | 189 | 4.8 | 6.4 | 0.00 | 0.00 | 0.00 | 73 | 1012.5 |
| 20260507202534 | 11 | 189 | 4.8 | 6.4 | 0.00 | 0.00 | 0.00 | 73 | 1012.7 |
| 20260507202034 | 11 | 249 | 1.6 | 4.8 | 0.00 | 0.00 | 0.00 | 73 | 1012.7 |
| 20260507201534 | 11 | 190 | 3.2 | 3.2 | 0.00 | 0.00 | 0.00 | 72 | 1012.5 |
| 20260507201034 | 11 | 204 | 3.2 | 6.4 | 0.00 | 0.00 | 0.00 | 72 | 1012.6 |
| 20260507200534 | 11 | 217 | 3.2 | 3.2 | 0.00 | 0.00 | 0.00 | 72 | 1012.7 |
| 20260507200034 | 11 | 132 | 3.2 | 4.8 | 0.00 | 0.00 | 0.00 | 72 | 1012.5 |
| 20260507195534 | 11 | 10 | 4.8 | 9.7 | 0.00 | 0.00 | 0.00 | 72 | 1012.7 |
| 20260507195034 | 11 | 197 | 3.2 | 3.2 | 0.00 | 0.00 | 0.00 | 72 | 1012.8 |
| 20260507194534 | 11 | 213 | 0.0 | 4.8 | 0.00 | 0.00 | 0.00 | 72 | 1012.4 |
| 20260507194034 | 11 | 140 | 3.2 | 4.8 | 0.00 | 0.00 | 0.00 | 71 | 1012.4 |
| 20260507193534 | 11 | 183 | 1.6 | 6.4 | 0.00 | 0.00 | 0.00 | 71 | 1012.5 |
| 20260507193034 | 11 | 140 | 3.2 | 4.8 | 0.00 | 0.00 | 0.00 | 70 | 1012.3 |
| 20260507192534 | 11 | 290 | 1.6 | 1.6 | 0.00 | 0.00 | 0.00 | 70 | 1012.2 |
| 20260507192034 | 11 | 121 | 3.2 | 3.2 | 0.00 | 0.00 | 0.00 | 70 | 1012.2 |
| 20260507191534 | 12 | 29 | 1.6 | 3.2 | 0.00 | 0.00 | 0.00 | 70 | 1012.1 |
| 20260507191036 | 12 | 185 | 3.2 | 4.8 | 0.00 | 0.00 | 0.00 | 70 | 1012.4 |
| 20260507190534 | 12 | 83 | 1.6 | 1.6 | 0.00 | 0.00 | 0.00 | 70 | 1012.1 |
| 20260507190034 | 12 | 289 | 3.2 | 4.8 | 0.00 | 0.00 | 0.00 | 70 | 1012.2 |
| 20260507185534 | 12 | 321 | 3.2 | 4.8 | 0.00 | 0.00 | 0.00 | 70 | 1012.2 |
| 20260507185034 | 12 | 177 | 3.2 | 3.2 | 0.00 | 0.00 | 0.00 | 69 | 1012.1 |
| 20260507184534 | 12 | 288 | 0.0 | 1.6 | 0.00 | 0.00 | 0.00 | 69 | 1012.1 |
| 20260507184034 | 12 | 288 | 0.0 | 1.6 | 0.00 | 0.00 | 0.00 | 69 | 1011.8 |
| 20260507183534 | 12 | 181 | 1.6 | 1.6 | 0.00 | 0.00 | 0.00 | 68 | 1012.0 |
| 20260507183034 | 12 | 32 | 1.6 | 3.2 | 0.00 | 0.00 | 0.00 | 68 | 1012.1 |
| 20260507182534 | 12 | 180 | 3.2 | 3.2 | 0.00 | 0.00 | 0.00 | 67 | 1012.1 |
| 20260507182034 | 12 | 185 | 1.6 | 3.2 | 0.00 | 0.00 | 0.00 | 67 | 1011.8 |
| 20260507181534 | 12 | 237 | 3.2 | 6.4 | 0.00 | 0.00 | 0.00 | 67 | 1011.9 |
| 20260507181034 | 12 | 119 | 6.4 | 12.9 | 0.00 | 0.00 | 0.00 | 68 | 1011.8 |
| 20260507180534 | 12 | 272 | 1.6 | 3.2 | 0.00 | 0.00 | 0.00 | 68 | 1011.8 |
| 20260507180034 | 12 | 183 | 3.2 | 4.8 | 0.00 | 0.00 | 0.00 | 67 | 1011.8 |
| 20260507175534 | 12 | 114 | 1.6 | 1.6 | 0.00 | 0.00 | 0.00 | 67 | 1011.9 |
| 20260507175034 | 12 | 79 | 0.0 | 1.6 | 0.00 | 0.00 | 0.00 | 67 | 1012.0 |
| 20260507174534 | 12 | 192 | 1.6 | 1.6 | 0.00 | 0.00 | 0.00 | 66 | 1011.8 |
| 20260507174034 | 12 | 260 | 3.2 | 4.8 | 0.00 | 0.00 | 0.00 | 66 | 1012.0 |
| 20260507173534 | 13 | 192 | 0.0 | 1.6 | 0.00 | 0.00 | 0.00 | 65 | 1012.0 |
| 20260507173034 | 13 | 301 | 1.6 | 1.6 | 0.00 | 0.00 | 0.00 | 64 | 1011.9 |
| 20260507172534 | 13 | 153 | 0.0 | 1.6 | 0.00 | 0.00 | 0.00 | 64 | 1011.9 |
| 20260507172034 | 13 | 180 | 1.6 | 9.7 | 0.00 | 0.00 | 0.00 | 63 | 1011.9 |
| 20260507171534 | 14 | 177 | 3.2 | 3.2 | 0.00 | 0.00 | 0.00 | 63 | 1011.9 |
| 20260507171034 | 14 | 246 | 3.2 | 4.8 | 0.00 | 0.00 | 0.00 | 63 | 1011.9 |
| 20260507170534 | 15 | 300 | 1.6 | 1.6 | 0.00 | 0.00 | 0.00 | 63 | 1012.2 |
| 20260507170034 | 15 | 57 | 3.2 | 4.8 | 0.00 | 0.00 | 0.00 | 62 | 1012.0 |
| 20260507165534 | 15 | 240 | 1.6 | 1.6 | 0.00 | 0.00 | 0.00 | 62 | 1012.0 |
| 20260507165034 | 15 | 175 | 3.2 | 4.8 | 0.00 | 0.00 | 0.00 | 62 | 1012.0 |
| 20260507164534 | 15 | 177 | 3.2 | 3.2 | 0.00 | 0.00 | 0.00 | 62 | 1012.0 |
| 20260507164034 | 15 | 167 | 1.6 | 3.2 | 0.00 | 0.00 | 0.00 | 63 | 1012.4 |
| 20260507163534 | 15 | 260 | 1.6 | 3.2 | 0.00 | 0.00 | 0.00 | 63 | 1012.2 |
| 20260507163034 | 15 | 94 | 3.2 | 4.8 | 0.00 | 0.00 | 0.00 | 63 | 1012.3 |
| 20260507162534 | 15 | 264 | 1.6 | 1.6 | 0.00 | 0.00 | 0.00 | 63 | 1012.3 |
| 20260507162034 | 15 | 116 | 0.0 | 1.6 | 0.00 | 0.00 | 0.00 | 63 | 1012.2 |
| 20260507161534 | 15 | 185 | 1.6 | 1.6 | 0.00 | 0.00 | 0.00 | 62 | 1012.4 |
| 20260507161034 | 15 | 59 | 0.0 | 1.6 | 0.00 | 0.00 | 0.00 | 62 | 1012.0 |
| 20260507160534 | 15 | 200 | 1.6 | 4.8 | 0.00 | 0.00 | 0.00 | 62 | 1012.1 |
| 20260507160034 | 15 | 152 | 1.6 | 3.2 | 0.00 | 0.00 | 0.00 | 62 | 1011.9 |
| 20260507155534 | 15 | 196 | 1.6 | 3.2 | 0.00 | 0.00 | 0.00 | 62 | 1012.1 |
| 20260507155034 | 15 | 195 | 1.6 | 3.2 | 0.00 | 0.00 | 0.00 | 62 | 1012.1 |
| 20260507154534 | 15 | 205 | 6.4 | 9.7 | 0.00 | 0.00 | 0.00 | 62 | 1012.3 |
| 20260507154034 | 15 | 166 | 3.2 | 4.8 | 0.00 | 0.00 | 0.00 | 63 | 1012.2 |
| 20260507153534 | 15 | 201 | 0.0 | 1.6 | 0.00 | 0.00 | 0.00 | 63 | 1012.3 |
| 20260507153033 | 15 | 170 | 3.2 | 11.3 | 0.00 | 0.00 | 0.00 | 63 | 1012.3 |
| 20260507152533 | 15 | 344 | 3.2 | 6.4 | 0.00 | 0.00 | 0.00 | 63 | 1012.4 |
| 20260507152033 | 15 | 32 | 3.2 | 3.2 | 0.00 | 0.00 | 0.00 | 64 | 1012.2 |
| 20260507151534 | 15 | 205 | 3.2 | 4.8 | 0.00 | 0.00 | 0.00 | 63 | 1012.4 |
| 20260507151034 | 15 | 189 | 1.6 | 3.2 | 0.00 | 0.00 | 0.00 | 63 | 1012.4 |
| 20260507150534 | 15 | 201 | 3.2 | 4.8 | 0.00 | 0.00 | 0.00 | 63 | 1012.5 |
| 20260507150034 | 15 | 258 | 3.2 | 3.2 | 0.00 | 0.00 | 0.00 | 63 | 1012.7 |
| 20260507145533 | 15 | 179 | 6.4 | 6.4 | 0.00 | 0.00 | 0.00 | 63 | 1012.6 |
| 20260507145033 | 15 | 181 | 1.6 | 6.4 | 0.00 | 0.00 | 0.00 | 64 | 1012.3 |
| 20260507144534 | 15 | 209 | 3.2 | 6.4 | 0.00 | 0.00 | 0.00 | 63 | 1012.6 |
| 20260507144033 | 15 | 218 | 3.2 | 6.4 | 0.00 | 0.00 | 0.00 | 65 | 1012.7 |
| 20260507143533 | 15 | 128 | 3.2 | 3.2 | 0.00 | 0.00 | 0.00 | 65 | 1012.9 |
| 20260507143033 | 15 | 203 | 3.2 | 9.7 | 0.00 | 0.00 | 0.00 | 64 | 1012.8 |
| 20260507142533 | 14 | 185 | 3.2 | 3.2 | 0.00 | 0.00 | 0.00 | 65 | 1012.5 |
| 20260507142033 | 15 | 245 | 4.8 | 9.7 | 0.00 | 0.00 | 0.00 | 65 | 1012.7 |
| 20260507141533 | 15 | 186 | 6.4 | 9.7 | 0.00 | 0.00 | 0.00 | 65 | 1012.8 |
| 20260507141033 | 15 | 191 | 3.2 | 6.4 | 0.00 | 0.00 | 0.00 | 65 | 1012.9 |
| 20260507140533 | 15 | 142 | 4.8 | 12.9 | 0.00 | 0.00 | 0.00 | 65 | 1013.1 |
| 20260507140033 | 15 | 176 | 6.4 | 9.7 | 0.00 | 0.00 | 0.00 | 65 | 1013.0 |
| 20260507135533 | 15 | 207 | 3.2 | 4.8 | 0.00 | 0.00 | 0.00 | 65 | 1013.1 |
| 20260507135033 | 15 | 288 | 1.6 | 4.8 | 0.00 | 0.00 | 0.00 | 65 | 1013.2 |
| 20260507134533 | 14 | 189 | 6.4 | 6.4 | 0.00 | 0.00 | 0.00 | 66 | 1013.0 |
| 20260507134033 | 14 | 202 | 3.2 | 4.8 | 0.00 | 0.00 | 0.00 | 66 | 1013.2 |
| 20260507133533 | 13 | 202 | 1.6 | 4.8 | 0.00 | 0.00 | 0.00 | 67 | 1013.1 |
| 20260507133033 | 13 | 174 | 1.6 | 11.3 | 0.00 | 0.00 | 0.00 | 68 | 1013.1 |
| 20260507132533 | 13 | 154 | 3.2 | 4.8 | 0.00 | 0.00 | 0.00 | 68 | 1013.4 |
| 20260507132033 | 13 | 193 | 3.2 | 4.8 | 0.00 | 0.00 | 0.00 | 68 | 1013.5 |
| 20260507131533 | 12 | 200 | 3.2 | 3.2 | 0.00 | 0.00 | 0.00 | 67 | 1013.3 |
| 20260507131033 | 13 | 183 | 3.2 | 4.8 | 0.00 | 0.00 | 0.00 | 67 | 1013.4 |
| 20260507130533 | 13 | 149 | 3.2 | 6.4 | 0.00 | 0.00 | 0.00 | 67 | 1013.1 |
| 20260507130033 | 13 | 101 | 1.6 | 1.6 | 0.00 | 0.00 | 0.00 | 66 | 1013.1 |
| 20260507125533 | 13 | 167 | 3.2 | 3.2 | 0.00 | 0.00 | 0.00 | 67 | 1013.3 |
| 20260507125033 | 13 | 196 | 1.6 | 1.6 | 0.00 | 0.00 | 0.00 | 67 | 1013.3 |
| 20260507124533 | 13 | 196 | 1.6 | 3.2 | 0.00 | 0.00 | 0.00 | 68 | 1013.3 |
| 20260507124033 | 13 | 197 | 0.0 | 0.0 | 0.00 | 0.00 | 0.00 | 68 | 1013.5 |
| 20260507123533 | 13 | 201 | 1.6 | 1.6 | 0.00 | 0.00 | 0.00 | 68 | 1013.4 |
| 20260507123033 | 12 | 202 | 1.6 | 1.6 | 0.00 | 0.00 | 0.00 | 69 | 1013.5 |
| 20260507122533 | 12 | 198 | 1.6 | 1.6 | 0.00 | 0.00 | 0.00 | 69 | 1013.3 |
| 20260507122033 | 12 | 316 | 0.0 | 1.6 | 0.00 | 0.00 | 0.00 | 69 | 1013.5 |
| 20260507121533 | 12 | 316 | 0.0 | 1.6 | 0.00 | 0.00 | 0.00 | 70 | 1013.4 |
| 20260507121033 | 12 | 189 | 1.6 | 1.6 | 0.00 | 0.00 | 0.00 | 71 | 1013.5 |
| 20260507120533 | 11 | 240 | 0.0 | 1.6 | 0.00 | 0.00 | 0.00 | 71 | 1013.9 |
| 20260507120033 | 11 | 170 | 1.6 | 1.6 | 0.00 | 0.00 | 0.00 | 71 | 1013.5 |
| 20260507115533 | 11 | 199 | 3.2 | 3.2 | 0.00 | 0.00 | 0.00 | 71 | 1013.5 |
| 20260507115033 | 11 | 193 | 0.0 | 1.6 | 0.00 | 0.00 | 0.00 | 70 | 1013.7 |
| 20260507114533 | 11 | 134 | 0.0 | 0.0 | 0.00 | 0.00 | 0.00 | 70 | 1013.8 |
| 20260507114033 | 11 | 190 | 3.2 | 3.2 | 0.00 | 0.00 | 0.00 | 70 | 1013.7 |
| 20260507113533 | 11 | 163 | 1.6 | 1.6 | 0.00 | 0.00 | 0.00 | 69 | 1013.7 |
| 20260507113033 | 11 | 144 | 0.0 | 3.2 | 0.00 | 0.00 | 0.00 | 69 | 1013.8 |
| 20260507112533 | 11 | 135 | 3.2 | 3.2 | 0.00 | 0.00 | 0.00 | 69 | 1013.4 |
| 20260507112033 | 11 | 287 | 4.8 | 6.4 | 0.00 | 0.00 | 0.00 | 69 | 1013.6 |
| 20260507111533 | 11 | 260 | 1.6 | 3.2 | 0.00 | 0.00 | 0.00 | 69 | 1013.7 |
| 20260507111033 | 11 | 203 | 3.2 | 3.2 | 0.00 | 0.00 | 0.00 | 69 | 1013.6 |
| 20260507110533 | 11 | 81 | 1.6 | 1.6 | 0.00 | 0.00 | 0.00 | 69 | 1013.6 |
| 20260507110033 | 11 | 212 | 1.6 | 3.2 | 0.00 | 0.00 | 0.00 | 69 | 1013.9 |
| 20260507105533 | 12 | 175 | 1.6 | 1.6 | 0.00 | 0.00 | 0.00 | 68 | 1014.0 |
| 20260507105033 | 12 | 172 | 0.0 | 1.6 | 0.00 | 0.00 | 0.00 | 68 | 1014.1 |
| 20260507104533 | 12 | 234 | 0.0 | 1.6 | 0.00 | 0.00 | 0.00 | 67 | 1013.8 |
| 20260507104033 | 12 | 0.0 | 0.0 | 0.00 | 0.00 | 0.00 | 67 | 1014.0 | |
| 20260507103533 | 12 | 0.0 | 0.0 | 0.00 | 0.00 | 0.00 | 67 | 1013.8 | |
| 20260507103033 | 12 | 210 | 1.6 | 1.6 | 0.00 | 0.00 | 0.00 | 66 | 1013.8 |
| 20260507102533 | 12 | 210 | 1.6 | 1.6 | 0.00 | 0.00 | 0.00 | 66 | 1013.9 |
| 20260507102033 | 13 | 0.0 | 0.0 | 0.00 | 0.00 | 0.00 | 65 | 1013.5 | |
| 20260507101533 | 13 | 0.0 | 0.0 | 0.00 | 0.00 | 0.00 | 65 | 1013.7 | |
| 20260507101033 | 13 | 0.0 | 0.0 | 0.00 | 0.00 | 0.00 | 65 | 1013.7 | |
| 20260507100533 | 13 | 76 | 1.6 | 1.6 | 0.00 | 0.00 | 0.00 | 65 | 1013.7 |
| 20260507100033 | 13 | 76 | 1.6 | 1.6 | 0.00 | 0.00 | 0.00 | 64 | 1013.7 |
| 20260507095533 | 13 | 92 | 1.6 | 1.6 | 0.00 | 0.00 | 0.00 | 64 | 1013.6 |
| 20260507095033 | 13 | 0.0 | 0.0 | 0.00 | 0.00 | 0.00 | 63 | 1013.7 | |
| 20260507094533 | 13 | 0.0 | 0.0 | 0.00 | 0.00 | 0.00 | 63 | 1013.6 | |
| 20260507094033 | 13 | 0.0 | 0.0 | 0.00 | 0.00 | 0.00 | 65 | 1013.8 | |
| 20260507093533 | 13 | 0.0 | 0.0 | 0.00 | 0.00 | 0.00 | 65 | 1013.6 | |
| 20260507093033 | 13 | 54 | 3.2 | 4.8 | 0.00 | 0.00 | 0.00 | 64 | 1013.5 |
| 20260507092533 | 13 | 54 | 3.2 | 4.8 | 0.00 | 0.00 | 0.00 | 64 | 1013.6 |
| 20260507092033 | 12 | 78 | 3.2 | 3.2 | 0.00 | 0.00 | 0.00 | 64 | 1013.4 |
| 20260507091533 | 12 | 103 | 3.2 | 4.8 | 0.00 | 0.00 | 0.00 | 64 | 1013.5 |
| 20260507091033 | 12 | 78 | 1.6 | 3.2 | 0.00 | 0.00 | 0.00 | 64 | 1013.6 |
| 20260507090533 | 13 | 169 | 3.2 | 3.2 | 0.00 | 0.00 | 0.00 | 63 | 1013.5 |
| 20260507090033 | 13 | 169 | 3.2 | 3.2 | 0.00 | 0.00 | 0.00 | 63 | 1013.6 |
| 20260507085532 | 13 | 95 | 4.8 | 6.4 | 0.00 | 0.00 | 0.00 | 62 | 1013.6 |
| 20260507085032 | 14 | 79 | 4.8 | 4.8 | 0.00 | 0.00 | 0.00 | 63 | 1013.6 |
| 20260507084532 | 15 | 79 | 4.8 | 4.8 | 0.00 | 0.00 | 0.00 | 65 | 1013.7 |
| 20260507084032 | 15 | 153 | 3.2 | 4.8 | 0.00 | 0.00 | 0.00 | 66 | 1013.7 |
| 20260507083532 | 14 | 134 | 4.8 | 4.8 | 0.00 | 0.00 | 0.00 | 66 | 1013.9 |
| 20260507083032 | 13 | 135 | 1.6 | 1.6 | 0.00 | 0.00 | 0.00 | 65 | 1013.9 |
| 20260507082532 | 13 | 165 | 3.2 | 3.2 | 0.00 | 0.00 | 0.00 | 65 | 1013.8 |
| 20260507082032 | 13 | 165 | 3.2 | 3.2 | 0.00 | 0.00 | 0.00 | 66 | 1013.6 |
| 20260507081532 | 13 | 151 | 3.2 | 3.2 | 0.00 | 0.00 | 0.00 | 67 | 1013.6 |
| 20260507081032 | 13 | 110 | 4.8 | 4.8 | 0.00 | 0.00 | 0.00 | 68 | 1013.8 |
| 20260507080532 | 12 | 182 | 3.2 | 4.8 | 0.00 | 0.00 | 0.00 | 67 | 1013.8 |
| 20260507080032 | 12 | 107 | 3.2 | 3.2 | 0.00 | 0.00 | 0.00 | 68 | 1013.5 |
| 20260507075532 | 12 | 194 | 4.8 | 6.4 | 0.00 | 0.00 | 0.00 | 69 | 1013.9 |
| 20260507075032 | 12 | 179 | 3.2 | 3.2 | 0.00 | 0.00 | 0.00 | 69 | 1014.0 |
| 20260507074532 | 11 | 192 | 4.8 | 6.4 | 0.00 | 0.00 | 0.00 | 69 | 1014.0 |
| 20260507074032 | 11 | 145 | 4.8 | 4.8 | 0.00 | 0.00 | 0.00 | 70 | 1013.8 |
| 20260507073532 | 11 | 188 | 6.4 | 9.7 | 0.00 | 0.00 | 0.00 | 70 | 1014.0 |
| 20260507073032 | 11 | 207 | 4.8 | 4.8 | 0.00 | 0.00 | 0.00 | 70 | 1013.8 |
| 20260507072532 | 11 | 197 | 3.2 | 3.2 | 0.00 | 0.00 | 0.00 | 70 | 1013.7 |
| 20260507072032 | 11 | 0.0 | 0.0 | 0.00 | 0.00 | 0.00 | 71 | 1013.9 | |
| 20260507071532 | 11 | 0.0 | 0.0 | 0.00 | 0.00 | 0.00 | 72 | 1013.8 | |
| 20260507071032 | 10 | 105 | 3.2 | 3.2 | 0.00 | 0.00 | 0.00 | 73 | 1013.8 |
| 20260507070532 | 10 | 105 | 3.2 | 3.2 | 0.00 | 0.00 | 0.00 | 73 | 1013.8 |
| 20260507070032 | 10 | 185 | 3.2 | 6.4 | 0.00 | 0.00 | 0.00 | 73 | 1013.8 |
| 20260507065532 | 9 | 0.0 | 0.0 | 0.00 | 0.00 | 0.00 | 73 | 1013.9 | |
| 20260507065032 | 9 | 0.0 | 0.0 | 0.00 | 0.00 | 0.00 | 74 | 1013.9 | |
| 20260507064532 | 9 | 0.0 | 0.0 | 0.00 | 0.00 | 0.00 | 74 | 1013.7 | |
| 20260507064032 | 8 | 0.0 | 0.0 | 0.00 | 0.00 | 0.00 | 74 | 1013.7 | |
| 20260507063532 | 8 | 0.0 | 0.0 | 0.00 | 0.00 | 0.00 | 74 | 1014.1 | |
| 20260507063033 | 8 | 0.0 | 0.0 | 0.00 | 0.00 | 0.00 | 74 | 1014.0 | |
| 20260507062532 | 8 | 0.0 | 0.0 | 0.00 | 0.00 | 0.00 | 75 | 1013.8 | |
| 20260507062032 | 8 | 192 | 3.2 | 4.8 | 0.00 | 0.00 | 0.00 | 75 | 1013.9 |
| 20260507061532 | 8 | 192 | 3.2 | 4.8 | 0.00 | 0.00 | 0.00 | 75 | 1014.1 |
| 20260507061032 | 8 | 156 | 3.2 | 4.8 | 0.00 | 0.00 | 0.00 | 75 | 1013.8 |
| 20260507060532 | 8 | 0.0 | 0.0 | 0.00 | 0.00 | 0.00 | 75 | 1013.8 | |
| 20260507060032 | 8 | 190 | 3.2 | 3.2 | 0.00 | 0.00 | 0.00 | 76 | 1014.0 |
| 20260507055532 | 8 | 190 | 3.2 | 3.2 | 0.00 | 0.00 | 0.00 | 76 | 1013.6 |
| 20260507055032 | 8 | 0.0 | 0.0 | 0.00 | 0.00 | 0.00 | 76 | 1014.0 | |
| 20260507054532 | 7 | 0.0 | 0.0 | 0.00 | 0.00 | 0.00 | 76 | 1013.9 | |
| 20260507054032 | 7 | 0.0 | 0.0 | 0.00 | 0.00 | 0.00 | 76 | 1013.9 | |
| 20260507053532 | 7 | 267 | 0.0 | 1.6 | 0.00 | 0.00 | 0.00 | 75 | 1013.9 |
| 20260507053032 | 7 | 267 | 0.0 | 1.6 | 0.00 | 0.00 | 0.00 | 75 | 1014.0 |
| 20260507052532 | 7 | 161 | 0.0 | 1.6 | 0.00 | 0.00 | 0.00 | 75 | 1014.0 |
| 20260507052032 | 7 | 0.0 | 0.0 | 0.00 | 0.00 | 0.00 | 75 | 1013.9 | |
| 20260507051532 | 7 | 189 | 1.6 | 3.2 | 0.00 | 0.00 | 0.00 | 75 | 1013.8 |
| 20260507051032 | 7 | 189 | 1.6 | 3.2 | 0.00 | 0.00 | 0.00 | 75 | 1013.8 |
| 20260507050532 | 7 | 199 | 3.2 | 4.8 | 0.00 | 0.00 | 0.00 | 75 | 1014.1 |
| 20260507050032 | 7 | 199 | 3.2 | 4.8 | 0.00 | 0.00 | 0.00 | 75 | 1013.8 |
| 20260507045532 | 7 | 195 | 4.8 | 4.8 | 0.00 | 0.00 | 0.00 | 75 | 1013.6 |
| 20260507045032 | 7 | 0.0 | 0.0 | 0.00 | 0.00 | 0.00 | 75 | 1013.8 | |
| 20260507044532 | 6 | 240 | 1.6 | 3.2 | 0.00 | 0.00 | 0.00 | 75 | 1014.0 |
| 20260507044032 | 6 | 240 | 1.6 | 3.2 | 0.00 | 0.00 | 0.00 | 75 | 1013.9 |
| 20260507043532 | 6 | 207 | 4.8 | 4.8 | 0.00 | 0.00 | 0.00 | 75 | 1014.1 |
| 20260507043032 | 7 | 201 | 1.6 | 1.6 | 0.00 | 0.00 | 0.00 | 75 | 1013.8 |
| 20260507042532 | 7 | 197 | 3.2 | 6.4 | 0.00 | 0.00 | 0.00 | 75 | 1014.0 |
| 20260507042032 | 7 | 196 | 3.2 | 6.4 | 0.00 | 0.00 | 0.00 | 75 | 1013.9 |
| 20260507041532 | 7 | 194 | 4.8 | 4.8 | 0.00 | 0.00 | 0.00 | 75 | 1013.8 |
| 20260507041032 | 7 | 206 | 8.0 | 11.3 | 0.00 | 0.00 | 0.00 | 75 | 1013.8 |
| 20260507040532 | 7 | 199 | 1.6 | 4.8 | 0.00 | 0.00 | 0.00 | 75 | 1013.9 |
| 20260507040032 | 7 | 199 | 4.8 | 4.8 | 0.00 | 0.00 | 0.00 | 74 | 1013.8 |
| 20260507035532 | 7 | 194 | 3.2 | 3.2 | 0.00 | 0.00 | 0.00 | 74 | 1013.8 |
| 20260507035032 | 7 | 192 | 3.2 | 6.4 | 0.00 | 0.00 | 0.00 | 74 | 1013.9 |
| 20260507034534 | 7 | 0.0 | 0.0 | 0.00 | 0.00 | 0.00 | 74 | 1013.6 | |
| 20260507034032 | 7 | 0.0 | 0.0 | 0.00 | 0.00 | 0.00 | 74 | 1013.9 | |
| 20260507033532 | 7 | 200 | 1.6 | 3.2 | 0.00 | 0.00 | 0.00 | 74 | 1013.8 |
| 20260507033032 | 7 | 200 | 1.6 | 3.2 | 0.00 | 0.00 | 0.00 | 74 | 1013.9 |
| 20260507032532 | 7 | 162 | 3.2 | 3.2 | 0.00 | 0.00 | 0.00 | 74 | 1014.1 |
| 20260507032032 | 7 | 162 | 3.2 | 3.2 | 0.00 | 0.00 | 0.00 | 74 | 1014.1 |
| 20260507031532 | 7 | 181 | 3.2 | 4.8 | 0.00 | 0.00 | 0.00 | 74 | 1014.3 |
| 20260507031032 | 7 | 198 | 1.6 | 3.2 | 0.00 | 0.00 | 0.00 | 74 | 1014.4 |
| 20260507030532 | 7 | 0.0 | 0.0 | 0.00 | 0.00 | 0.00 | 74 | 1014.2 | |
| 20260507030032 | 7 | 0.0 | 0.0 | 0.00 | 0.00 | 0.00 | 74 | 1014.3 | |
| 20260507025532 | 7 | 0.0 | 0.0 | 0.00 | 0.00 | 0.00 | 74 | 1014.2 | |
| 20260507025032 | 7 | 207 | 3.2 | 4.8 | 0.00 | 0.00 | 0.00 | 74 | 1014.3 |
| 20260507024532 | 7 | 207 | 3.2 | 4.8 | 0.00 | 0.00 | 0.00 | 74 | 1014.3 |
| 20260507024032 | 7 | 189 | 1.6 | 4.8 | 0.00 | 0.00 | 0.00 | 74 | 1014.3 |
| 20260507023619 | 7 | 0.0 | 0.0 | 0.00 | 0.00 | 0.00 | 73 | 1014.2 | |
| 20260507023032 | 7 | 85 | 3.2 | 4.8 | 0.00 | 0.00 | 0.00 | 73 | 1014.2 |
| 20260507022532 | 7 | 85 | 3.2 | 4.8 | 0.00 | 0.00 | 0.00 | 73 | 1014.2 |
| 20260507022032 | 7 | 189 | 3.2 | 9.7 | 0.00 | 0.00 | 0.00 | 73 | 1014.2 |
| 20260507021532 | 7 | 189 | 3.2 | 9.7 | 0.00 | 0.00 | 0.00 | 73 | 1014.2 |
| 20260507021031 | 7 | 198 | 3.2 | 6.4 | 0.00 | 0.00 | 0.00 | 74 | 1014.2 |
| 20260507020532 | 7 | 55 | 6.4 | 9.7 | 0.00 | 0.00 | 0.00 | 74 | 1014.2 |
| 20260507020031 | 7 | 55 | 6.4 | 9.7 | 0.00 | 0.00 | 0.00 | 74 | 1014.0 |
| 20260507015532 | 7 | 0.0 | 0.0 | 0.00 | 0.00 | 0.00 | 74 | 1014.0 | |
| 20260507015031 | 7 | 0.0 | 0.0 | 0.00 | 0.00 | 0.00 | 74 | 1014.2 | |
| 20260507014531 | 7 | 0.0 | 0.0 | 0.00 | 0.00 | 0.00 | 74 | 1014.3 | |
| 20260507014031 | 7 | 0.0 | 0.0 | 0.00 | 0.00 | 0.00 | 74 | 1014.2 | |
| 20260507013531 | 7 | 0.0 | 0.0 | 0.00 | 0.00 | 0.00 | 74 | 1014.2 | |
| 20260507013031 | 7 | 189 | 6.4 | 6.4 | 0.00 | 0.00 | 0.00 | 74 | 1014.4 |
| 20260507012531 | 7 | 189 | 6.4 | 6.4 | 0.00 | 0.00 | 0.00 | 74 | 1014.3 |
| 20260507012031 | 6 | 197 | 6.4 | 9.7 | 0.00 | 0.00 | 0.00 | 74 | 1014.4 |
| 20260507011531 | 6 | 0.0 | 0.0 | 0.00 | 0.00 | 0.00 | 74 | 1014.2 | |
| 20260507011031 | 6 | 0.0 | 0.0 | 0.00 | 0.00 | 0.00 | 74 | 1014.6 | |
| 20260507010531 | 6 | 190 | 4.8 | 4.8 | 0.00 | 0.00 | 0.00 | 73 | 1014.5 |
| 20260507010031 | 6 | 190 | 4.8 | 4.8 | 0.00 | 0.00 | 0.00 | 73 | 1014.7 |
| 20260507005531 | 6 | 150 | 4.8 | 6.4 | 0.00 | 0.00 | 0.00 | 73 | 1014.4 |
| 20260507005031 | 6 | 150 | 4.8 | 6.4 | 0.00 | 0.00 | 0.00 | 73 | 1014.4 |
| 20260507004532 | 6 | 0.0 | 0.0 | 0.00 | 0.00 | 0.00 | 73 | 1014.7 | |
| 20260507004031 | 6 | 176 | 3.2 | 6.4 | 0.00 | 0.00 | 0.00 | 72 | 1014.7 |